Location: Chuathbaluk
(61.5726°N, 159.2454°W)
Time: 04:00:17
(UTC+00:00)

S-56A Canister/Altair - Pass Details

Date: 03 December 2020
Orbit: 633 x 2499 km, 38.9° (Epoch: 23 January)

Event Time Altitude Azimuth Distance (km) Brightness Sun altitude
Rises 07:29:57 0° 242° (WSW) 5,379 12.2 -40.4°
Reaches altitude 10° 07:35:40 10° 224° (SW) 3,971 11.2 -40.9°
Enters shadow 07:37:47 13° 213° (SSW) 3,550 10.8 -41.2°
Maximum altitude 07:40:44 15° 194° (SSW) 3,163 - -41.4°
Drops below altitude 10° 07:44:58 10° 161° (SSE) 3,197 - -41.9°
Sets 07:48:45 0° 139° (SE) 3,828 - -42.2°
